Weather Service Report


960 
ASUS44 KSJT 261010
RWRSJT
WEST CENTRAL TEXAS REGIONAL WEATHER ROUNDUP
NATIONAL WEATHER SERVICE SAN ANGELO TX
500 AM CDT WED JUL 26 2017

NOTE: "FAIR" INDICATES FEW OR NO CLOUDS BELOW 12,000 FEET WITH NO
SIGNIFICANT WEATHER AND/OR OBSTRUCTIONS TO VISIBILITY.

TXZ049-054-064>066-071>073-076>078-098-099-113-114-127-128-139-140-
154-155-168>170-261100
...LOCATIONS ACROSS WEST CENTRAL TEXAS...
  
CITY           SKY/WX    TMP DP  RH WIND       PRES   REMARKS
SAN ANGELO     CLEAR     78  68  71 S6        30.08R                  
ABILENE        CLEAR     78  69  73 S9        30.07S                  
DYESS AFB      NOT AVBL                                               
JUNCTION       CLEAR     77  70  79 SE3       30.09S                  
SWEETWATER     CLEAR     78  66  66 S12       30.11S                  
BROWNWOOD      CLOUDY    77  68  73 SE6       30.08S                  
COLEMAN        SUNNY     77  69  74 S6        30.08S                  
SONORA         CLEAR     77  70  78 S6        30.14S                  
OZONA          FAIR      75  68  78 S9        30.12S                  
BRADY          NOT AVBL                                               
$$

TEXAS PANHANDLE/OKLAHOMA PANHANDLE
  
CITY           SKY/WX    TMP DP  RH WIND       PRES   REMARKS
AMARILLO       CLOUDY    76  61  59 S18       30.10S                  
BORGER         CLOUDY    81  61  50 S14G26    30.05R                  
CANADIAN       MOCLDY    80  66  60 S15G21    30.01S                  
DALHART        CLOUDY    72  58  61 S10       30.08S                  
DUMAS          CLOUDY    75  59  58 S13       30.07S                  
GUYMON         NOT AVBL                                               
HEREFORD       MOSUNNY   76  61  60 SW10      30.13S                  
PAMPA          CLOUDY    78  62  57 S10       30.08S                  
PERRYTON       CLOUDY    81  63  54 S13G18    30.01F                  
$$

SOUTHERN PANHANDLE/SOUTH PLAINS/ROLLING PLAINS
  
CITY           SKY/WX    TMP DP  RH WIND       PRES   REMARKS
LUBBOCK        MOCLDY    79  61  53 S14       30.10S                  
SNYDER         CLEAR     75  63  64 S5        30.09S                  
CHILDRESS      CLEAR     80  62  54 S10       30.02F                  
SEMINOLE       SUNNY     72  61  67 S7        30.13R                  
$$

PERMIAN BASIN
  
CITY           SKY/WX    TMP DP  RH WIND       PRES   REMARKS
MIDLAND        CLEAR     77  65  66 S8        30.10S                  
ODESSA         CLEAR     79  65  62 S9        30.10F                  
WINK           CLOUDY    79  63  57 SE10      30.05F                  
$$

FAR WEST/SOUTHWEST MOUNTAINS/TRANS PECOS
  
CITY           SKY/WX    TMP DP  RH WIND       PRES   REMARKS
ALPINE         CLOUDY    71  60  69 SW8       30.23S                  
DRYDEN           N/A     77  67  71 E13       30.05S                  
EL PASO        PTCLDY    80  65  59 SW9       30.11S                  
FORT STOCKTON  NOT AVBL                                               
GUADALUPE PASS CLOUDY    75  58  55 SW12      30.25S                  
MARFA          CLOUDY    66  62  87 N7        30.22F                  
PECOS          CLOUDY    77  62  59 E6        30.04S                  
$$

DALLAS/FORT WORTH METROPLEX
  
CITY           SKY/WX    TMP DP  RH WIND       PRES   REMARKS
DFW AIRPORT    CLEAR     82  72  71 S10       30.02F                  
FTW MEACHAM    CLEAR     82  72  71 S9        30.03S                  
DAL-EXECUTIVE  CLEAR     80  72  76 VRB6      30.03F                  
GRAND PRAIRIE  CLEAR     80  69  69 S7        30.05F                  
ADDISON        CLEAR     81  70  71 S8        30.06F                  
MESQUITE       SUNNY     76  71  86 SE6       30.05F                  
LANCASTER      SUNNY     77  71  81 SE3       30.05F                  
$$

NORTH CENTRAL TEXAS
  
CITY           SKY/WX    TMP DP  RH WIND       PRES   REMARKS
SHRMAN/DENISON SUNNY     78  71  79 S10       30.05S                  
GAINESVILLE    NOT AVBL                                               
BRIDGEPORT     SUNNY     78  68  70 CALM      30.05R                  
DENTON         CLEAR     79  72  79 SE7       30.03S                  
WAXAHACHIE     SUNNY     76  72  85 SE6       30.06F                  
GRANBURY       SUNNY     81  70  68 SE6       30.05S                  
$$

WESTERN NORTH TEXAS
  
CITY           SKY/WX    TMP DP  RH WIND       PRES   REMARKS
WICHITA FALLS  CLEAR     78  67  68 S10       30.00S                  
VERNON         SUNNY     77  63  61 S7        30.01F                  
BRECKENRIDGE   SUNNY     81  67  62 S8        30.04S                  
COMANCHE       CLEAR     77  71  81 S8        30.07S                  
$$

CENTRAL AND SOUTH CENTRAL TEXAS
  
CITY           SKY/WX    TMP DP  RH WIND       PRES   REMARKS
AUSTIN/BERGSTM PTCLDY    77  75  93 CALM      30.05S                  
WACO           CLEAR     79  73  82 S10       30.05S                  
HILLSBORO      MOSUNNY   79  72  80 S8        30.06S                  
TEMPLE         CLEAR     77  74  90 S8        30.07S                  
KILLEEN-GRAY   NOT AVBL                                               
FORT HOOD      NOT AVBL                                               
GEORGETOWN     NOT AVBL                                               
LAGO VISTA     FAIR      77  74  91 S3        30.09S                  
SAN MARCOS     CLEAR     77  72  83 SW5       30.07R                  
NEW BRAUNFELS  CLEAR     74  72  93 SW3       30.04F                  
RANDOLPH AFB   NOT AVBL                                               
SAN ANTONIO    PTCLDY    78  73  84 E3        30.07R                  
STINSON        MOCLDY    78  74  87 SE5       30.04R                  
PLEASANTON     NOT AVBL                                               
LA GRANGE      CLEAR     77  76  98 CALM      30.05R FOG              
GIDDINGS       MOSUNNY   74  72  95 CALM      30.08R FOG              
$$

EAST TEXAS
  
CITY           SKY/WX    TMP DP  RH WIND       PRES   REMARKS
PARIS            N/A     75  73  93 SE7         N/A                   
CLARKSVILLE    NOT AVBL                                               
TYLER          CLEAR     78  77  96 S7        30.08S                  
LONGVIEW       CLEAR     77  76  96 S3        30.08S                  
PALESTINE      SUNNY     76  76  98 CALM      30.09S                  
NACOGDOCHES    CLEAR     75  73  94 CALM      30.07S                  
$$

TEXAS HILL COUNTRY AND EDWARDS PLATEAU
  
CITY           SKY/WX    TMP DP  RH WIND       PRES   REMARKS
LLANO          SUNNY     75  72  88 CALM      30.10S                  
HORSESHOE BAY  FAIR      76  72  86 CALM      30.08S                  
KERRVILLE      MOCLDY    74  72  93 CALM      30.11R                  
FREDERICKSBRG  PTCLDY    74  70  88 S5        30.10S                  
ROCKSPRINGS    NOT AVBL                                               
HONDO          CLEAR     76  73  91 NE6       30.07R                  
UVALDE         SUNNY     74  70  86 CALM      30.06F                  
DEL RIO        CLEAR     79  70  74 E8        30.03R                  
$$

SOUTHEAST TEXAS
  
CITY           SKY/WX    TMP DP  RH WIND       PRES   REMARKS
COLLEGE STN    CLEAR     77  76  96 SE3       30.07R                  
CALDWELL       NOT AVBL                                               
CROCKETT       SUNNY     75  75 100 CALM      30.11R FOG              
BRENHAM        PTCLDY    77  76  97 CALM      30.09R FOG              
HUNTSVILLE     CLEAR     79  74  84 CALM      30.08R                  
CONROE         CLEAR     75  73  93 CALM      30.08R                  
HOUSTON BUSH   CLOUDY    79  73  82 S6        30.07R                  
HOUSTON HOBBY  CLOUDY    79  73  82 SW3       30.07R                  
PERLAND        CLOUDY    81  75  82 CALM      30.09R                  
WHARTON        CLOUDY    76  73  87 SE3       30.08R                  
$$

THE UPPER TEXAS COAST
  
CITY           SKY/WX    TMP DP  RH WIND       PRES   REMARKS
ORANGE         CLOUDY    77  77 100 CALM      30.10S FOG              
PORT ARTHUR    CLEAR     77  76  96 CALM      30.08R                  
GALVESTON      CLOUDY    83  77  82 S10       30.08R                  
ANGLETON       MOCLDY    78  76  93 SE3       30.08R                  
BAY CITY       CLOUDY    77  75  95 CALM      30.07S                  
$$

TEXAS COASTAL BEND, RIO GRANDE PLAINS DEEP SOUTH TEXAS
  
CITY           SKY/WX    TMP DP  RH WIND       PRES   REMARKS
VICTORIA       CLOUDY    79  76  90 S8        30.06R                  
BEEVILLE       FAIR      76  76 100 S6        30.05S                  
ROCKPORT       PTCLDY    82  74  76 S6        30.06R                  
PORT ARANSAS   CLOUDY    83  75  77 S13       30.06R                  
PORT LAVACA    CLOUDY    78  74  90 S6        30.06S                  
CORPUS CHRISTI MOCLDY    74  73  97 CALM      30.05R                  
KINGSVILLE NAS CLOUDY    76  74  93 E3        30.05R                  
COTULLA        CLEAR     76  68  76 SE5       30.03R                  
LAREDO         CLEAR     78  68  71 SE9       30.02S                  
BROWNSVILLE    CLEAR     77  75  93 SE6       30.05R                  
PORT ISABEL    CLEAR     79  76  90 S8        30.04R                  
HEBBRONVILLE   PTSUNNY   73  67  82 CALM      30.05R                  
MCALLEN        CLEAR     78  71  79 SE8       30.04R                  
WESLACO        CLEAR     78  73  84 S5        30.03R                  
FALFURRIAS     MOSUNNY   74  72  92 SE3       30.04R                  
EDINBURG       MOSUNNY   75  71  86 SE3       30.04S                  
$$
  

Return to Home page


Western Regional Climate Center, wrcc@dri.edu